Terug naar catalogus

OV1-21 R/B

ActiefPO
NORAD 5397·ROCKET BODY·🇺🇸 United States

Gelanceerd Aug 7, 1971 vanaf Vandenberg Space Force Base

Loading…

Volgende Passages (komende 24 uur)

TLE

VersSource: Space-Track

Epoch: Sep 14, 2026, 09:40 UTC

1 05397U 71067B   26257.40340775  .00000092  00000-0  35704-4 0  9991
2 05397  87.6252  49.3332 0079369 255.1125 104.1264 14.18247804847090

Volg OV1-21 R/B in realtime met AllMySat

Download on the App Store